Location: Trois-Rivi�res
(46.3500°N, 72.5500°W)
Time: 05:36:43
(UTC-04:00)

Daily predictions for brighter satellites

Satellite Brightness Start Highest point End
(mag) Time Altitude Azimuth Time Altitude Azimuth Time Altitude Azimuth
CENTAUR R/B 4.4 00:03:33 12° ESE 00:04:07 12° ESE 00:06:21 10° E
ALOS 2 2.6 00:07:05 57° SE 00:07:54 75° ENE 00:12:18 10° N
Lacrosse 5 rocket 3.9 00:05:36 10° NW 00:08:52 22° NNE 00:12:15 10° ENE
H-2A R/B 4.1 00:07:09 12° WSW 00:09:34 16° W 00:12:38 10° NW
Cosmos 1417 Rocket 4.4 00:03:29 10° N 00:09:39 88° W 00:11:56 42° S
NOSS 3-2 (C) 3.7 00:08:05 41° SSE 00:09:52 53° ESE 00:16:21 10° NE
Cosmos 1408 Rocket 3.5 00:09:33 60° SSE 00:10:13 72° E 00:14:42 10° NNE
Cosmos 841 Rocket 4.4 00:07:10 10° N 00:12:11 42° ENE 00:14:29 27° ESE
Cosmos 1689 Rocket 2.7 00:13:13 60° NNE 00:13:13 60° NNE 00:16:03 10° N
Cosmos 1553 Rocket 4.0 00:08:28 10° N 00:14:50 79° E 00:17:19 40° SSE
Cosmos 1697 Rocket 4.1 00:10:40 10° NNW 00:15:46 33° NE 00:19:42 15° ESE
Helios 1A Rocket 3.5 00:14:06 10° NNE 00:18:00 43° E 00:18:03 43° ESE
Cosmos 2082 Rocket 3.3 00:18:14 27° ESE 00:19:02 28° ESE 00:23:48 10° NE
Cosmos 1707 3.7 00:24:10 36° WSW 00:24:52 40° WNW 00:28:36 10° N
Cosmos 1943 Rocket 4.2 00:23:08 10° WNW 00:25:56 14° W 00:27:40 12° WSW
Cosmos 1833 Rocket 3.9 00:25:26 24° ESE 00:26:15 25° ESE 00:30:46 10° NE
Cosmos 1151 Rocket 4.4 00:24:22 10° NNE 00:28:06 28° ENE 00:29:09 25° E
Cosmos 468 Rocket 4.2 00:28:58 10° NNW 00:34:09 59° WSW 00:35:15 48° SSW
Cosmos 1743 Rocket 3.6 00:37:16 60° SE 00:37:48 67° E 00:42:14 10° NNE
ISS -1.4 00:35:44 10° WNW 00:38:42 30° N 00:41:39 10° ENE
Cosmos 1814 Rocket 4.2 00:36:27 10° NNW 00:41:38 58° WSW 00:42:46 48° SSW
Meteor 1-24 Rocket 4.0 00:39:21 37° SW 00:41:43 65° WNW 00:47:37 10° N
S3M 4.1 00:36:01 10° NNW 00:42:12 66° W 00:44:21 41° SSW
Cosmos 1656 4.0 00:38:15 10° NNW 00:43:56 63° ENE 00:46:29 33° SE
Cosmos 2266 Rocket 4.2 00:41:55 40° SSE 00:44:13 64° E 00:50:35 10° NNE
H-2A R/B 2.9 00:44:55 10° N 00:48:37 45° WNW 00:49:08 42° W
Landsat 5 3.8 00:50:14 46° WSW 00:50:17 46° W 00:54:12 10° NNW
Cosmos 1674 3.9 00:50:46 30° E 00:50:46 30° E 00:54:03 10° NNE
Cosmos 1378 3.5 00:51:52 53° W 00:52:01 53° WNW 00:55:45 10° N
Cosmos 1766 Rocket 4.2 00:51:41 40° WSW 00:52:38 47° WNW 00:57:00 10° N
NOSS 3-2 (A) 3.6 00:50:05 27° SW 00:53:41 74° NW 01:00:30 10° NE
Cosmos 1500 Rocket 3.5 00:54:40 63° SE 00:55:07 69° E 00:59:26 10° NNE
CZ-2C R/B 3.0 00:50:30 10° NNE 00:55:59 56° E 00:57:28 43° SSE
Cosmos 2221 4.2 00:54:11 10° NW 00:57:28 21° W 00:58:04 21° W
Timation 2 Rocket 4.1 00:54:32 37° SSW 00:57:34 89° ESE 01:04:23 10° NNE
Cosmos 1076 Rocket 4.5 00:57:52 32° WSW 00:58:44 36° WNW 01:02:41 10° N
Cosmos 1328 Rocket 3.6 00:54:31 10° NNW 00:58:52 63° W 00:59:20 59° SW
Cosmos 1486 Rocket 4.0 00:58:22 45° SW 00:59:57 72° WNW 01:05:11 10° NNE
CZ-4C R/B 2.4 00:58:46 30° WSW 01:01:33 69° NW 01:07:43 10° NE
Meteor 2-20 4.4 01:00:24 43° S 01:02:35 89° E 01:08:48 10° N
Aureole 1 Rocket 4.0 01:00:19 10° NNW 01:04:44 53° ENE 01:07:26 28° SE
Cosmos 405 4.2 01:04:13 10° N 01:07:32 33° ENE 01:07:59 32° E
Cosmos 1818 4.1 01:02:52 10° NW 01:07:58 40° WSW 01:08:30 39° SW
Cosmos 2322 Rocket 4.2 01:05:31 10° N 01:10:06 25° NE 01:14:40 10° ESE
In-Cosmos 22 4.2 01:08:53 46° SSW 01:10:37 81° W 01:16:21 10° N
Cosmos 2344 3.7 01:07:08 35° SSW 01:10:47 71° ESE 01:19:41 10° NE
Cosmos 1515 Rocket 3.7 01:07:56 10° NNW 01:12:20 59° W 01:12:52 54° SW
Cosmos 1763 Rocket 3.7 01:08:34 10° NNW 01:13:47 56° WSW 01:14:50 47° SSW
Cosmos 540 Rocket 4.0 01:09:57 10° NNW 01:15:03 55° ENE 01:17:31 29° SE
CZ-4B R/B 3.6 01:17:49 18° W 01:17:49 18° W 01:20:07 10° NW
Lacrosse 5 1.8 01:13:48 10° NW 01:18:54 82° NE 01:21:51 25° SE
Cosmos 2369 4.3 01:13:41 10° NW 01:18:54 39° WSW 01:19:53 36° SW
Cosmos 2228 Rocket 4.2 01:16:24 10° NNW 01:20:13 29° W 01:20:39 29° W
Meteor 1-21 Rocket 4.2 01:18:18 43° SSW 01:20:14 76° WNW 01:25:56 10° N
PSLV R/B 3.9 01:23:11 63° SSE 01:23:50 86° ENE 01:28:03 10° NNW
Genesis I 3.8 01:20:18 10° NW 01:23:34 44° W 01:23:34 44° W
Meteor 2-2 Rocket 4.5 01:27:06 10° NNW 01:32:42 57° W 01:34:29 40° SSW
Abrixas 4.1 01:37:22 29° ENE 01:37:22 29° ENE 01:39:03 10° ENE
Cosmos 724 4.2 01:34:02 40° SW 01:36:15 90° NW 01:42:11 10° NE
Cosmos 1980 Rocket 2.2 01:34:17 10° NNW 01:39:57 81° ENE 01:42:54 30° SSE
Cosmos 1908 3.8 01:38:48 10° NNW 01:42:27 43° W 01:42:27 43° W
Cosmos 1867 4.1 01:42:42 27° WSW 01:45:31 54° NW 01:50:55 10° NNE
Cosmos 1805 Rocket 3.7 01:45:16 48° SSE 01:46:19 65° E 01:50:44 10° NNE
Cosmos 1437 3.7 01:46:47 40° E 01:46:51 40° E 01:50:00 10° NNE
Cosmos 1354 Rocket 4.5 01:45:26 34° WSW 01:47:30 54° WNW 01:52:43 10° NNE
Cosmos 2242 Rocket 4.3 01:44:35 10° N 01:48:52 47° ENE 01:50:43 29° SE
Lacrosse 5 rocket 2.2 01:44:42 10° NW 01:48:55 53° NNE 01:53:18 10° ESE
ERS-2 4.0 01:47:13 10° NE 01:50:07 21° E 01:51:01 19° ESE
COS B Rocket 4.2 01:50:42 10° N 01:51:56 27° N 01:51:56 27° N
USA 32 4.0 01:47:49 10° N 01:53:04 70° W 01:54:47 42° SSW
CENTAUR R/B 2.6 01:50:42 37° SSW 01:53:15 68° ESE 02:00:09 10° NE
Cosmos 1633 Rocket 3.7 01:52:35 35° SE 01:53:56 48° E 01:58:13 10° NNE
Cosmos 1300 2.7 01:50:49 10° N 01:54:41 77° E 01:55:21 58° SSE
Cosmos 2058 2.9 01:54:35 55° S 01:55:26 80° E 01:59:38 10° NNE
Cosmos 1707 Rocket 3.4 01:53:37 10° N 01:57:59 85° W 01:59:04 51° S
BREEZE-M DEB (TANK) 2.9 01:56:23 10° WNW 01:59:02 88° NNE 02:06:40 10° ESE
Cosmos 1697 Rocket 3.1 01:54:30 10° NW 01:59:54 46° WSW 02:01:24 37° SSW
Cosmos 1437 Rocket 3.6 01:57:14 10° NNW 02:00:51 35° W 02:00:53 35° W
Cosmos 1441 Rocket 4.0 02:00:22 36° W 02:01:02 39° WNW 02:04:45 10° N
Cosmos 968 Rocket 4.2 01:59:30 29° SSE 02:01:26 42° ESE 02:06:16 10° NE
Cosmos 2082 Rocket 2.8 02:00:04 27° WSW 02:02:51 50° WNW 02:08:23 10° NNE
Cosmos 1666 Rocket 3.5 02:02:21 46° SSE 02:03:31 73° E 02:07:51 10° NNE
Cosmos 1151 Rocket 4.2 02:01:58 10° NNW 02:05:36 27° W 02:06:00 27° W
CZ-2C R/B 3.7 02:05:11 35° SW 02:06:54 45° W 02:12:23 10° NNW
Cosmos 2151 3.5 02:06:59 38° WSW 02:07:56 45° WNW 02:12:02 10° N
Cosmos 1833 Rocket 3.1 02:07:07 29° WSW 02:09:48 55° WNW 02:15:22 10° NNE
ASTEX 1 3.7 02:10:26 10° N 02:15:18 57° W 02:17:04 36° SW
ISS -2.7 02:12:19 10° WNW 02:15:33 56° NNE 02:18:46 10° E
ATLAS 5 CENTAUR R/B 3.9 02:14:08 13° SE 02:16:13 16° ESE 02:19:21 10° ENE
Cosmos 1933 Rocket 4.5 02:16:43 25° SE 02:18:44 41° E 02:22:54 10° NNE
Cosmos 1726 2.0 02:15:21 10° NNW 02:19:02 73° W 02:19:41 56° SSW
Cosmos 332 Rocket 3.9 02:15:42 10° NNW 02:20:25 56° WSW 02:21:55 39° SSW
Cosmos 1455 3.5 02:18:15 10° N 02:21:49 36° ENE 02:24:09 18° SE
Cosmos 1538 Rocket 3.9 02:19:15 10° NNW 02:24:28 78° WSW 02:27:25 27° SSE
Cosmos 1674 4.4 02:25:43 19° W 02:26:28 20° WNW 02:29:20 10° NNW
Resurs 1-4 Rocket 4.5 02:24:26 10° NE 02:27:29 15° E 02:30:31 10° ESE
Cosmos 2360 4.2 02:22:42 10° NNW 02:28:20 62° WSW 02:31:29 27° S
IRS-P3 4.3 02:24:50 10° NNE 02:30:11 69° ESE 02:33:03 28° S
Landsat 4 3.9 02:30:13 44° SW 02:30:46 48° W 02:34:25 10° NNW
Cosmos 1745 Rocket 4.0 02:29:28 29° SSW 02:32:54 74° W 02:39:17 10° N
Sich 1 3.2 02:31:28 38° SW 02:33:01 64° W 02:37:27 10° N
SL-16 R/B 4.1 02:29:14 10° SE 02:34:49 35° ENE 02:40:24 10° N
CZ-2C R/B 4.3 02:31:27 10° N 02:35:51 25° WNW 02:38:59 15° WSW
Nadezhda 1 Rocket 4.0 02:30:22 10° NNW 02:36:30 68° W 02:40:02 26° S
SL-08 R/B 3.4 02:33:32 22° SSE 02:36:42 83° ENE 02:41:40 10° NNW
Cosmos 1680 Rocket 4.3 02:31:54 10° NNW 02:37:01 51° ENE 02:42:05 10° SE
Cosmos 1777 Rocket 4.4 02:38:05 26° S 02:40:58 59° ESE 02:46:11 10° NNE
Cosmos 773 Rocket 3.9 02:36:59 10° NNW 02:42:09 87° ENE 02:46:33 14° SSE
Cosmos 1626 3.0 02:40:53 25° SSE 02:42:42 45° E 02:46:19 10° NNE
SL-16 R/B 2.1 02:37:20 10° NNW 02:43:03 85° WSW 02:48:36 11° SSE
Cosmos 1709 Rocket 4.3 02:39:54 19° S 02:44:28 65° E 02:50:39 10° NNE
USA 161 3.1 02:43:31 18° ESE 02:44:33 25° ENE 02:46:37 10° NNE
JB-3 4.5 02:42:21 10° N 02:46:20 62° WNW 02:47:48 35° SW
CBERS-1 4.2 02:42:56 10° NNE 02:48:04 70° ESE 02:51:14 23° S
CZ-4C R/B 4.4 02:46:44 10° WNW 02:51:18 23° NNW 02:56:21 10° NNE
Cosmos 1862 Rocket 3.5 02:46:49 10° N 02:51:19 86° W 02:54:04 23° S
SL-14 R/B 4.0 02:51:16 29° WSW 02:52:27 37° WNW 02:56:03 10° N
Cosmos 2322 Rocket 2.2 02:49:03 10° NNW 02:54:38 65° WSW 02:59:24 14° S
Cosmos 1869 3.3 02:51:33 10° N 02:55:32 78° E 02:58:11 20° SSE
ARIANE 5 R/B 3.8 02:51:08 10° NNE 02:55:47 34° E 03:00:18 10° SSE
SAR-Lupe-3 4.4 02:56:05 26° SSE 02:57:59 85° W 03:01:35 10° NNW
Lacrosse 5 3.1 02:57:36 10° WNW 03:00:56 21° WSW 03:00:56 21° WSW
USA 215 3.3 02:57:26 10° NE 03:03:59 72° SE 03:08:42 20° SW
Cosmos 1703 3.7 03:02:50 29° SW 03:04:28 47° WNW 03:08:20 10° N
ADEOS 3.7 03:00:50 10° NNE 03:06:05 73° ESE 03:09:57 18° S
Cosmos 1271 Rocket 3.0 03:04:58 10° NNW 03:08:38 46° W 03:10:13 28° SSW
Cosmos 371 Rocket 4.3 03:07:05 10° NW 03:11:16 29° W 03:13:03 23° SW
Abrixas 3.2 03:09:24 12° W 03:12:11 55° N 03:15:14 10° ENE
Cosmos 2221 Rocket 4.0 03:09:00 10° N 03:13:30 63° E 03:17:59 10° SSE
CZ-2D R/B 3.2 03:13:18 10° NNE 03:18:13 39° E 03:23:08 10° SSE
Cosmos 1869 Rocket 4.4 03:15:35 11° SSE 03:19:39 48° E 03:23:56 10° NNE
EO 1 Del DPAF 3.5 03:16:48 10° SSE 03:20:41 71° ENE 03:24:35 10° N
Cosmos 1346 3.4 03:20:28 21° S 03:22:19 64° E 03:25:22 10° NNE
Cosmos 1980 Rocket 3.8 03:19:52 10° WNW 03:23:13 16° W 03:24:37 15° WSW
Cosmos 304 Rocket 3.7 03:18:26 10° NNW 03:23:17 75° WSW 03:28:06 10° SSE
ERS-2 3.3 03:20:41 10° N 03:23:58 30° WNW 03:25:52 19° WSW
Cosmos 2360 Rocket 2.3 03:19:03 10° NNW 03:24:44 84° ENE 03:30:22 10° SSE
ATLAS CENTAUR R/B 2.8 03:20:36 10° NNW 03:25:15 47° NE 03:29:33 10° ESE
BREEZE-M DEB (TANK) 2.0 03:21:25 10° WNW 03:26:04 77° NNE 03:28:22 10° ESE
Lacrosse 5 rocket 2.2 03:24:12 10° WNW 03:28:05 31° SW 03:32:04 10° S
NPP 4.2 03:23:00 10° N 03:28:09 47° WNW 03:32:03 17° SW
Cosmos 1933 3.3 03:24:12 10° N 03:28:15 86° WSW 03:32:16 10° S
Cosmos 2112 Rocket 4.0 03:26:42 10° NNW 03:31:52 66° WSW 03:37:00 10° S
Meteor 1-4 Rocket 3.9 03:29:13 10° NW 03:32:20 25° W 03:33:52 19° SW
Cosmos 2181 Rocket 4.3 03:32:31 10° NNW 03:38:26 51° W 03:44:14 11° SSW
Meteor 1-26 Rocket 4.4 03:33:37 10° N 03:39:13 75° ENE 03:44:43 10° SSE
Cosmos 2322 3.7 03:36:38 10° NNW 03:42:22 75° WSW 03:48:04 10° SSE
Cosmos 2292 Rocket 3.5 03:41:39 19° SW 03:43:40 43° WNW 03:47:20 10° N
Cosmos 2219 4.1 03:38:36 10° S 03:44:02 47° ESE 03:49:32 10° NE
CENTAUR R/B 3.8 03:38:35 10° W 03:44:29 36° NNW 03:51:04 10° NNE
Cosmos 1703 Rocket 3.7 03:42:14 10° NNW 03:46:31 56° W 03:50:45 10° S
UNK 3.7 03:45:55 10° S 03:50:29 76° WSW 03:55:06 10° NNW
ISS -2.4 03:49:00 10° W 03:51:51 28° SW 03:54:41 10° SSE
Cosmos 1455 4.0 03:54:48 10° NW 03:57:15 17° W 03:59:10 12° WSW
ATLAS 5 CENTAUR R/B 2.0 03:55:40 13° SW 04:00:07 79° NW 04:05:30 10° NE
Cosmos 2333 Rocket 4.0 03:57:42 10° NNW 04:03:00 37° NE 04:08:16 10° ESE
USA 129 1.7 04:03:47 24° WSW 04:03:59 25° W 04:05:13 10° NW
Resurs 1-4 Rocket 2.1 04:02:36 10° NNE 04:07:57 79° WNW 04:13:15 10° SSW
Cosmos 2298 Rocket 4.1 04:03:48 10° SSW 04:09:08 89° ESE 04:14:31 10° NNE
BREEZE-M DEB (TANK) 3.3 04:01:31 10° W 04:09:42 80° SSW 04:12:53 10° ESE
Okean 1-7 3.3 04:05:47 10° NNW 04:10:04 51° W 04:14:17 10° S
USA 229 DEB 4.0 04:03:29 10° SSW 04:10:19 66° ESE 04:17:16 10° NE
USA 229 4.1 04:03:35 10° SSW 04:10:26 65° ESE 04:17:22 10° NE
Cosmos 2074 Rocket 4.1 04:04:42 10° SSW 04:10:51 65° W 04:17:07 10° N
COSMOS 2428 2.7 04:08:01 10° NNW 04:13:44 82° WSW 04:19:24 10° SSE
Cosmos 1833 4.5 04:10:17 10° SW 04:16:00 61° WNW 04:21:42 10° NNE
Cosmos 2184 Rocket 4.2 04:10:43 10° SSW 04:17:01 61° WNW 04:23:18 10° N
SL-16 R/B 2.9 04:12:19 10° S 04:18:17 46° W 04:24:19 10° NNW
Cosmos 1626 4.2 04:16:19 10° WSW 04:18:24 14° WNW 04:20:31 10° NNW
Cosmos 1892 3.4 04:18:12 10° S 04:22:01 56° E 04:25:49 10° NNE
SL-23 DEB 3.6 04:21:53 10° WNW 04:25:04 68° SSW 04:29:25 10° SE
SL-16 R/B 3.9 04:23:42 10° WNW 04:26:15 13° W 04:28:46 10° WSW
UNKNOWN OBJECT B 3.0 04:24:50 10° N 04:28:34 56° WNW 04:32:22 10° SSW
Okean O Rocket 1.7 04:25:38 10° NNE 04:30:05 85° E 04:34:30 10° SSW
Cosmos 2237 Rocket 3.3 04:25:34 10° NNW 04:31:06 51° ENE 04:36:38 10° SE
SME Rocket 3.8 04:25:12 10° S 04:31:23 55° WSW 04:35:44 10° NNW
